Location: Unspecified
(43.0000°N, 0.0000°E)
Time: 00:29:34
(UTC+00:00)

POLYITAN 1 - Visible Passes

Search period start: 23 July 2019 00:00
Search period end: 02 August 2019 00:00
Orbit: 593 x 611 km, 97.9° (Epoch: 21 July)

Date Brightness Start Highest point End Pass type
(mag) Time Alt. Az. Time Alt. Az. Time Alt. Az.
23 Jul ? 01:35:51 10° NNW 01:39:16 23° WNW 01:39:30 23° WNW visible
24 Jul ? 00:11:20 10° NNE 00:14:30 37° ENE 00:14:30 37° ENE visible
24 Jul ? 01:47:56 10° NNW 01:50:52 18° WNW 01:51:17 18° WNW visible
25 Jul ? 00:22:58 10° NNE 00:26:18 47° NE 00:26:18 47° NE visible
25 Jul ? 02:00:12 10° NNW 02:02:28 14° WNW 02:03:05 14° WNW visible
26 Jul ? 00:34:38 10° NNE 00:38:05 56° NNE 00:38:05 56° NNE visible
26 Jul ? 02:12:56 10° NW 02:14:02 11° WNW 02:14:53 10° WNW visible
27 Jul ? 00:46:21 10° N 00:49:53 57° N 00:49:53 57° N visible
27 Jul ? 23:24:11 10° ENE 23:24:53 12° ENE 23:24:53 12° ENE visible
28 Jul ? 00:58:09 10° N 01:01:40 49° NW 01:01:40 49° NW visible
28 Jul ? 23:35:11 10° NE 23:36:40 15° ENE 23:36:40 15° ENE visible
29 Jul ? 01:09:58 10° N 01:13:27 40° NW 01:13:27 40° NW visible
29 Jul ? 23:46:28 10° NE 23:48:27 19° ENE 23:48:27 19° ENE visible
30 Jul ? 01:21:52 10° N 01:25:15 31° WNW 01:25:15 31° WNW visible
30 Jul ? 23:57:54 10° NNE 00:00:14 24° ENE 00:00:14 24° ENE visible
31 Jul ? 01:33:50 10° NNW 01:37:02 24° WNW 01:37:02 24° WNW visible
01 Aug ? 00:09:25 10° NNE 00:12:01 30° NE 00:12:01 30° NE visible
01 Aug ? 01:45:54 10° NNW 01:48:48 19° WNW 01:48:48 19° WNW visible
